Flag for Canada Weather past 2 weeks in Grise Fiord, Nunavut, Canada

Now
23 °F

Sunny.


Feels Like: 16 °F
Forecast: 8 / 35 °F
Wind: 6 mph from Southwest

Location: Thule A. B.

Current Time: Apr 27, 2015 at 11:47:24 AM

Latest Report: Apr 27, 2015 at 10:58 AM


Visibility: N/A

Pressure: 30.29 "Hg

Humidity: 39%

Dew point: 1 °F

Location of Grise FiordLocation

Historic Weather in Grise Fiord — Graph

°F

Grise Fiord temperature yesterday

Maximum temperature yesterday: 27 °F (at 10:58 AM)
Minimum temperature yesterday: 16 °F (at 10:58 PM)
Average temperature yesterday: 22 °F

Past Weeks' High & Low Weather Summary

 TemperatureHumidityPressure
High27 °F (Apr 25, 11:58 AM)85% (Apr 20, 5:58 PM)30.90 "Hg (Apr 20, 5:58 PM)
Low-20 °F (Apr 15, 4:58 AM)32% (Apr 26, 3:58 AM)28.98 "Hg (Apr 15, 12:58 PM)
Average3 °F67%29.90 "Hg
* Reported Apr 12 9:58 AM — Apr 27 9:58 AM, Grise Fiord, Weather by CustomWeather, © 2015

Note: Actual official high and low records may vary slightly from our data, if they occured in-between our weather recording intervals... More about our weather records

Advertising

Grise Fiord weather history for previous 24 hours

 ConditionsComfort  
Time TempWeatherWind HumidityBarometerVisibility
9:58 AM
Mon, Apr 27
23 °FSunny.6 mph36%30.30 "HgN/A
8:58 AM23 °FSunny.7 mph36%30.31 "HgN/A
7:58 AM21 °FSunny.8 mph35%30.32 "HgN/A
6:58 AM18 °FSunny.10 mph45%30.33 "HgN/A
5:58 AM16 °FSunny.12 mph45%30.34 "HgN/A
5:00 AM14 °FSunny.14 mph48%30.38 "HgN/A
4:58 AM14 °FSunny.15 mph48%30.34 "HgN/A
3:58 AM12 °FSunny.7 mph52%30.35 "HgN/A
2:58 AM14 °FSunny.12 mph48%30.37 "HgN/A
1:58 AM14 °FSunny.13 mph48%30.37 "HgN/A
12:58 AM16 °FSunny.15 mph48%30.38 "HgN/A
11:58 PM
Sun, Apr 26
18 °FSunny.14 mph41%30.38 "HgN/A
10:58 PM16 °FSunny.3 mph79%30.41 "HgN/A
9:58 PM18 °FSunny.No wind79%30.42 "HgN/A
8:58 PM19 °FSunny.6 mph73%30.42 "HgN/A
7:58 PM21 °FSunny.9 mph74%30.42 "HgN/A
6:58 PM23 °FSunny.5 mph50%30.42 "HgN/A
5:58 PM23 °FSunny.7 mph54%30.42 "HgN/A
4:58 PM25 °FSunny.8 mph50%30.41 "HgN/A
3:58 PM25 °FSunny.No wind54%30.40 "HgN/A
2:58 PM25 °FSunny.6 mph42%30.39 "HgN/A
1:58 PM27 °FSunny.10 mph39%30.37 "HgN/A
12:58 PM27 °FSunny.15 mph39%30.35 "HgN/A
11:58 AM25 °FSunny.3 mph46%30.36 "HgN/A
Weather by CustomWeather, © 2015

See weather overviewHow to use our weather pages